Location: Augustenthal
(51.7167°N, 10.2833°E)
Time: 23:13:57
(UTC+00:00)

ARIANE 5 R/B - Pass Details

Date: 18 May 2021
Orbit: 620 x 656 km, 98.1° (Epoch: 13 June)

Event Time Altitude Azimuth Distance (km) Brightness Sun altitude
Exits shadow 20:18:53 10° 157° (SSE) 1,980 4.5 -8.8°
Maximum altitude 20:23:10 74° 73° (ENE) 652 2.6 -9.3°
Drops below altitude 10° 20:27:31 10° 349° (NNW) 2,009 6.3 -9.7°
Sets 20:29:44 0° 347° (NNW) 2,924 7.3 -9.9°
